Date,TemperatureHighF,TemperatureAvgF,TemperatureLowF,DewpointHighF,DewpointAvgF,DewpointLowF,HumidityHigh,HumidityAvg,HumidityLow,PressureMaxIn,PressureMinIn,WindSpeedMaxMPH,WindSpeedAvgMPH,GustSpeedMaxMPH,PrecipitationSumIn
2013-10-1,61.6,55.4,47.6,57.0,51.6,47.0,98,87,73,29.81,29.75,13,2,17,0.01
2013-10-2,64.8,58.9,54.3,62.0,56.3,52.0,98,91,79,29.86,29.77,8,2,13,0.06
2013-10-3,63.5,59.6,55.1,62.0,58.6,55.0,99,96,91,29.86,29.69,6,2,14,0.04
2013-10-4,68.4,62.9,57.3,63.0,60.1,56.0,98,90,74,29.91,29.64,10,2,18,0.03
2013-10-5,65.2,57.6,50.8,59.0,55.1,50.0,99,91,74,30.23,29.91,3,0,7,0.00
2013-10-6,66.5,53.5,41.8,56.0,49.0,41.0,100,86,60,30.27,30.23,5,1,8,0.00
2013-10-7,65.0,55.1,48.8,58.0,53.4,48.0,99,94,77,30.28,30.21,5,1,8,0.00
2013-10-8,67.7,59.7,54.0,61.0,57.2,53.0,99,92,78,30.25,30.19,9,1,10,0.01
2013-10-9,61.3,53.7,44.3,55.0,49.2,39.0,97,85,70,30.21,29.96,11,2,17,0.00
2013-10-10,52.0,47.1,43.1,44.0,39.9,38.0,85,76,64,30.09,29.97,17,6,23,0.02
2013-10-11,54.3,51.0,45.8,52.0,48.4,40.0,97,91,81,30.11,29.94,21,5,23,0.13
2013-10-12,56.7,51.8,47.7,53.0,48.8,46.0,97,90,73,30.10,29.96,9,2,22,0.08
2013-10-13,52.1,49.2,45.5,52.0,48.4,45.0,99,97,94,29.98,29.74,14,2,17,0.35
2013-10-14,50.4,47.7,46.7,49.0,46.9,46.0,99,97,93,29.73,29.68,7,1,12,0.14
2013-10-15,54.5,48.6,44.9,51.0,47.5,44.0,99,96,86,29.93,29.73,5,1,9,0.03
2013-10-16,55.7,47.9,39.9,55.0,47.3,40.0,100,97,91,29.95,29.67,9,2,14,0.18
2013-10-17,63.4,54.9,48.8,56.0,52.3,48.0,98,91,75,29.98,29.77,5,1,12,0.00
2013-10-18,60.3,55.1,48.2,57.0,53.6,48.0,100,94,85,30.00,29.76,7,2,15,0.02
2013-10-19,62.0,57.0,52.7,60.0,55.9,52.0,99,96,91,29.75,29.61,6,1,13,0.06
2013-10-20,62.1,55.0,52.2,58.0,53.8,51.0,99,95,84,29.70,29.61,9,2,18,0.47
2013-10-21,62.2,58.1,53.8,59.0,56.5,53.0,99,94,87,29.72,29.58,12,3,17,0.06
2013-10-22,63.0,60.0,54.8,60.0,58.0,54.0,97,93,88,29.58,29.31,8,3,15,0.17
2013-10-23,61.5,55.4,44.3,57.0,52.1,43.0,98,89,68,29.83,29.22,9,2,21,0.12
2013-10-24,62.2,50.4,40.8,55.0,48.4,40.0,100,93,74,29.96,29.80,8,2,12,0.00
2013-10-25,63.4,58.6,54.5,60.0,56.0,53.0,99,91,81,29.80,29.57,14,4,18,0.09
2013-10-26,61.4,58.1,56.2,57.0,55.1,53.0,95,89,81,29.67,29.44,12,4,22,0.02
2013-10-27,59.4,54.5,49.6,56.0,51.4,48.0,99,89,71,29.43,29.20,17,4,23,0.27
2013-10-28,59.3,52.0,45.4,59.0,49.5,43.0,99,91,82,29.55,28.83,20,4,36,0.83
2013-10-29,54.9,45.4,37.6,47.0,41.8,37.0,98,88,64,30.02,29.55,11,2,16,0.01
2013-10-30,56.1,47.6,36.9,52.0,44.4,36.0,99,89,73,30.14,30.03,9,2,16,0.01
2013-10-31,54.2,53.0,51.7,53.0,51.4,49.0,98,94,88,30.03,29.90,9,2,14,0.07